This demonstration page uses our WeatherBlox Daily Observations layout. Learn more.

Left ArrowRight Arrow

Hourly Observations for July 6, 2022

Temp ( °F °C ) Dew Point ( °F °C ) Humidity (%) Winds ( mph kmh ) Pressure ( in mb ) Visibility ( mi km ) Precip ( " mm )
12:15 am 00:15 Cloudy 71 21.8 63 17.4 76 76 ENE 18 30 29.79 1009 10 16 0.00 0.00
12:35 am 00:35 Cloudy with Thunderstorms 71 21.7 64 17.5 77 77 ENE 15 24 29.83 1010 10 16 0.02 0.51
12:55 am 00:55 Cloudy with Strong Thunderstorms 71 21.6 64 17.6 78 78 SSW 3 6 29.91 1013 7 11 0.15 3.81
1:15 am 01:15 Cloudy with Rain 69 20.6 64 18 85 85 SE 9 15 29.90 1013 10 16 0.03 0.76
1:35 am 01:35 Cloudy with Nearby Thunderstorms 68 19.8 65 18.2 91 91 SSE 12 19 29.89 1012 5 8 0.12 3.05
1:55 am 01:55 Cloudy 68 20 64 17.9 88 88 ESE 15 24 29.85 1011 10 16 0.15 3.81
2:15 am 02:15 Mostly Cloudy 68 20.2 64 18 87 87 E 10 17 29.87 1011 10 16 0.00 0.00
2:35 am 02:35 Mostly Cloudy 67 19.7 65 18.2 91 91 ENE 10 17 29.86 1011 10 16 0.00 0.00
2:55 am 02:55 Mostly Cloudy 68 20.2 65 18.2 88 88 NE 9 15 29.87 1011 10 16 0.00 0.00
3:15 am 03:15 Cloudy 68 19.8 65 18.5 92 92 N 9 15 29.89 1012 10 16 0.00 0.00
3:35 am 03:35 Cloudy 68 20 66 18.7 92 92 N 8 13 29.91 1013 10 16 0.00 0.00
3:55 am 03:55 Cloudy with Light Rain 69 20.4 67 19.3 93 93 NNE 12 19 29.89 1012 10 16 0.00 0.00
4:15 am 04:15 Cloudy 69 20.6 68 19.8 95 95 NE 15 24 29.89 1012 10 16 0.00 0.00
4:35 am 04:35 Cloudy 69 20.5 67 19.6 95 95 NE 15 24 29.88 1012 10 16 0.00 0.00
4:55 am 04:55 Mostly Cloudy 68 20.2 67 19.5 96 96 ENE 15 24 29.88 1012 10 16 0.00 0.00
5:15 am 05:15 Cloudy 68 20.1 67 19.5 96 96 E 13 20 29.88 1012 10 16 0.00 0.00
5:35 am 05:35 Partly Cloudy 68 20 67 19.2 95 95 E 10 17 29.86 1011 10 16 0.00 0.00
5:55 am 05:55 Clear 68 20 67 19.2 95 95 E 12 19 29.86 1011 10 16 0.00 0.00
6:15 am 06:15 Sunny 68 19.8 66 19.1 96 96 E 7 11 29.86 1011 10 16 0.00 0.00
6:35 am 06:35 Sunny 68 19.8 66 19 95 95 ENE 7 11 29.88 1012 10 16 0.00 0.00
6:55 am 06:55 Sunny 68 19.9 66 19.1 95 95 E 10 17 29.86 1011 10 16 0.00 0.00
7:15 am 07:15 Sunny 68 20 66 19.1 95 95 E 7 11 29.88 1012 10 16 0.00 0.00
7:35 am 07:35 Sunny 68 20 67 19.2 95 95 ENE 14 22 29.85 1011 10 16 0.00 0.00
7:55 am 07:55 Sunny 68 19.9 66 19 95 95 ENE 13 20 29.85 1011 10 16 0.00 0.00
8:15 am 08:15 Partly Cloudy 68 20 67 19.2 95 95 NE 6 9 29.89 1012 10 16 0.00 0.00
8:35 am 08:35 Partly Cloudy 68 20.2 66 19.1 93 93 ENE 10 17 29.89 1012 10 16 0.00 0.00
8:55 am 08:55 Sunny 69 20.5 66 19 91 91 ENE 9 15 29.88 1012 10 16 0.00 0.00
9:15 am 09:15 Sunny 70 21 67 19.2 90 90 ENE 8 13 29.88 1012 10 16 0.00 0.00
9:35 am 09:35 Sunny 71 21.5 67 19.2 87 87 ENE 8 13 29.88 1012 10 16 0.00 0.00
9:55 am 09:55 Sunny 72 22.4 67 19.5 84 84 ENE 8 13 29.88 1012 10 16 0.00 0.00
10:15 am 10:15 Sunny 73 22.9 67 19.7 82 82 NE 12 19 29.87 1012 10 16 0.00 0.00
10:35 am 10:35 Partly Cloudy 74 23.3 68 20.1 82 82 NE 13 20 29.87 1012 10 16 0.00 0.00
10:55 am 10:55 Partly Cloudy 75 23.7 68 20.1 80 80 NE 12 19 29.88 1012 10 16 0.00 0.00
11:15 am 11:15 Mostly Cloudy 76 24.2 68 20.2 78 78 ENE 15 24 29.88 1012 10 16 0.00 0.00
11:35 am 11:35 Mostly Cloudy 77 24.9 68 20 74 74 NE 12 19 29.88 1012 10 16 0.00 0.00
11:55 am 11:55 Mostly Cloudy 77 25.1 69 20.4 75 75 E 12 19 29.88 1012 10 16 0.00 0.00
12:15 pm 12:15 Partly Cloudy 78 25.7 69 20.4 73 73 E 12 19 29.87 1012 10 16 0.00 0.00
12:35 pm 12:35 Partly Cloudy 78 25.7 68 20.2 72 72 ENE 9 15 29.87 1012 10 16 0.00 0.00
12:55 pm 12:55 Partly Cloudy 79 26 69 20.5 72 72 ENE 14 22 29.87 1011 10 16 0.00 0.00
1:15 pm 13:15 Partly Cloudy 80 26.7 69 20.5 69 69 E 14 22 29.86 1011 10 16 0.00 0.00
1:35 pm 13:35 Mostly Cloudy 81 27 69 20.8 69 69 ENE 13 20 29.86 1011 10 16 0.00 0.00
1:55 pm 13:55 Mostly Cloudy 80 26.8 69 20.4 68 68 ENE 9 15 29.86 1011 10 16 0.00 0.00
2:15 pm 14:15 Mostly Cloudy 81 27.2 71 21.4 71 71 E 10 17 29.86 1011 10 16 0.00 0.00
2:35 pm 14:35 Cloudy 79 26.1 70 21.1 74 74 ENE 13 20 29.87 1011 10 16 0.00 0.00
2:55 pm 14:55 Cloudy 79 26 70 21 74 74 E 9 15 29.87 1011 10 16 0.00 0.00
3:15 pm 15:15 Cloudy 78 25.7 69 20.8 74 74 E 10 17 29.87 1012 10 16 0.00 0.00
3:35 pm 15:35 Cloudy 79 25.9 70 21 74 74 E 9 15 29.87 1011 10 16 0.00 0.00
3:55 pm 15:55 Cloudy 79 26.3 70 21 73 73 ENE 8 13 29.87 1011 10 16 0.00 0.00
4:15 pm 16:15 Partly Cloudy 80 26.7 70 20.9 71 71 E 9 15 29.85 1011 10 16 0.00 0.00
4:35 pm 16:35 Partly Cloudy 80 26.8 71 21.4 72 72 E 9 15 29.84 1011 10 16 0.00 0.00
4:55 pm 16:55 Partly Cloudy 82 27.5 72 22 72 72 ESE 9 15 29.84 1010 10 16 0.00 0.00
5:15 pm 17:15 Partly Cloudy 82 27.5 71 21.6 70 70 E 12 19 29.84 1010 10 16 0.00 0.00
5:35 pm 17:35 Sunny 81 27.3 71 21.6 71 71 E 13 20 29.82 1010 10 16 0.00 0.00
5:55 pm 17:55 Partly Cloudy 82 27.7 71 21.9 71 71 E 13 20 29.81 1009 10 16 0.00 0.00
6:15 pm 18:15 Mostly Cloudy 80 26.6 70 21.3 73 73 E 13 20 29.81 1010 10 16 0.00 0.00
6:35 pm 18:35 Mostly Cloudy 80 26.9 70 21.1 71 71 E 12 19 29.80 1009 10 16 0.00 0.00
6:55 pm 18:55 Mostly Cloudy 81 27.1 71 21.5 72 72 E 15 24 29.80 1009 10 16 0.00 0.00
7:15 pm 19:15 Partly Cloudy 81 27 70 21.2 71 71 E 12 19 29.82 1010 10 16 0.00 0.00
7:35 pm 19:35 Sunny 80 26.6 70 21.3 73 73 ESE 9 15 29.83 1010 10 16 0.00 0.00
7:55 pm 19:55 Sunny 80 26.6 71 21.5 74 74 ESE 8 13 29.83 1010 10 16 0.00 0.00
8:15 pm 20:15 Sunny 79 25.9 71 21.6 77 77 ESE 7 11 29.85 1011 10 16 0.00 0.00
8:35 pm 20:35 Sunny 78 25.4 71 21.8 81 81 ESE 7 11 29.84 1011 10 16 0.00 0.00
8:55 pm 20:55 Sunny 76 24.7 72 22 85 85 E 5 7 29.85 1011 10 16 0.00 0.00
9:15 pm 21:15 Partly Cloudy 76 24.4 72 22.1 87 87 ESE 5 7 29.85 1011 10 16 0.00 0.00
9:35 pm 21:35 Cloudy 75 24.1 72 22 88 88 Calm 29.85 1011 10 16 0.00 0.00
9:55 pm 21:55 Mostly Cloudy 75 23.8 71 21.9 89 89 E 3 6 29.86 1011 10 16 0.00 0.00
10:15 pm 22:15 Cloudy 74 23.5 71 21.8 90 90 ESE 3 6 29.87 1011 10 16 0.00 0.00
10:35 pm 22:35 Cloudy 75 23.7 70 21.3 86 86 ESE 7 11 29.86 1011 10 16 0.00 0.00
10:55 pm 22:55 Mostly Cloudy 74 23.3 70 20.9 86 86 E 7 11 29.86 1011 10 16 0.00 0.00
11:15 pm 23:15 Partly Cloudy 73 23 69 20.4 85 85 ESE 6 9 29.87 1012 10 16 0.00 0.00
11:35 pm 23:35 Clear 74 23.1 69 20.3 84 84 ENE 3 6 29.86 1011 10 16 0.00 0.00
11:55 pm 23:55 Clear 73 22.5 69 20.6 89 89 ENE 3 6 29.86 1011 10 16 0.00 0.00

Powered by AerisWeather